FW5184 Weather Reports


Display with metric or nautical units.
time (UTC)temp
F
wind
direction
speed
MPH
gust
MPH
rain 1hr
in
rain 24hr
in
rain mn
in
humidity
%
barometer
mb
20260510082353 37 313 0.0 0.0 0.00 0.11 0.00 80 1009.0
20260510080905 38 301 0.0 1.0 0.00 0.11 0.00 79 1008.9
20260510075356 38 306 0.0 0.0 0.00 0.11 0.00 78 1008.7
20260510073935 39 304 0.0 0.0 0.00 0.11 0.00 77 1008.7
20260510072438 40 312 0.0 1.0 0.00 0.11 0.00 76 1008.5
20260510070854 40 315 0.0 2.0 0.00 0.11 0.00 74 1008.5
20260510065306 41 321 0.0 0.0 0.00 0.11 0.00 73 1008.5
20260510063822 42 325 0.0 2.0 0.00 0.11 0.00 73 1008.5
20260510062353 42 320 1.0 6.0 0.00 0.11 0.00 72 1008.5
20260510060929 42 307 0.0 2.0 0.00 0.11 0.00 71 1008.2
20260510053853 43 330 1.0 7.0 0.00 0.11 0.00 71 1007.9
20260510052348 44 342 0.0 1.0 0.00 0.11 0.00 72 1007.6
20260510050807 45 302 0.0 0.0 0.00 0.11 0.00 72 1007.3
20260510043708 46 320 0.0 0.0 0.00 0.11 0.00 75 1006.8
20260510042218 46 329 0.0 0.0 0.00 0.11 0.00 75 1006.9
20260510040742 46 280 1.0 5.0 0.00 0.11 0.00 76 1007.1
20260510035321 46 304 0.0 0.0 0.00 0.11 0.11 77 1006.5
20260510033744 47 307 0.0 0.0 0.00 0.11 0.11 77 1006.2
20260510032239 47 311 0.0 0.0 0.00 0.11 0.11 77 1006.1
20260510030730 48 12 0.0 0.0 0.00 0.11 0.11 77 1005.7
20260510025219 48 302 0.0 1.0 0.00 0.11 0.11 77 1005.6
20260510023747 49 313 0.0 1.0 0.00 0.11 0.11 76 1005.2
20260510020638 50 349 3.0 9.0 0.00 0.11 0.11 82 1005.1
20260510015143 51 346 4.0 10.0 0.00 0.11 0.11 86 1004.7
20260510013606 52 260 1.0 8.0 0.00 0.11 0.11 88 1004.4
20260510012135 52 267 1.0 8.0 0.00 0.11 0.11 87 1003.7
20260510010549 52 228 0.0 0.0 0.00 0.11 0.11 87 1003.4
20260510005034 52 196 1.0 3.0 0.00 0.11 0.11 87 1002.7
20260510003513 52 219 1.0 4.0 0.00 0.11 0.11 86 1002.5
20260510001932 52 200 1.0 4.0 0.00 0.11 0.11 85 1002.5
20260509234815 54 194 3.0 6.0 0.00 0.11 0.11 84 1002.3
20260509233301 54 146 4.0 10.0 0.00 0.11 0.11 82 1002.1
20260509231821 55 200 3.0 8.0 0.00 0.11 0.11 83 1001.7
20260509224605 55 228 4.0 9.0 0.00 0.11 0.11 83 1001.1
20260509223029 56 193 5.0 10.0 0.00 0.11 0.11 83 1001.0
20260509215919 57 195 6.0 14.0 0.00 0.11 0.11 85 1000.9
20260509214340 56 223 5.0 12.0 0.00 0.11 0.11 87 1001.0
20260509212915 54 184 7.0 19.0 0.03 0.11 0.11 86 1000.6
20260509211350 55 219 6.0 19.0 0.08 0.11 0.11 84 1001.2
20260509205847 56 200 6.0 14.0 0.28 0.02 0.03 80 1001.1
20260509204416 57 223 7.0 20.0 0.00 0.00 0.00 75 1000.8
20260509202943 58 173 7.0 20.0 0.00 0.00 0.00 75 1000.6
20260509201358 58 229 7.0 14.0 0.00 0.00 0.00 74 1000.6
20260509195914 59 161 6.0 13.0 0.00 0.00 0.00 73 1000.7
20260509194441 60 199 5.0 16.0 0.00 0.00 0.00 70 1000.6
20260509192905 59 194 6.0 16.0 0.00 0.00 0.00 71 1001.2
20260509191420 59 149 5.0 20.0 0.00 0.00 0.00 71 1001.5
20260509185928 59 194 5.0 14.0 0.00 0.00 0.00 70 1001.8
20260509184435 59 156 7.0 18.0 0.00 0.00 0.00 66 1001.5
20260509182953 60 191 4.0 15.0 0.00 0.00 0.00 67 1001.4
20260509181428 61 171 6.0 13.0 0.00 0.00 0.00 63 1001.6
20260509175956 62 237 6.0 15.0 0.00 0.00 0.00 63 1001.5
20260509174520 62 187 7.0 19.0 0.00 0.00 0.00 62 1001.9
20260509173047 61 204 7.0 15.0 0.00 0.00 0.00 64 1002.0
20260509171511 61 236 7.0 14.0 0.00 0.00 0.00 63 1002.1
20260509170017 61 248 5.0 13.0 0.00 0.00 0.00 67 1002.3
20260509164439 59 221 7.0 14.0 0.00 0.00 0.00 69 1002.9
20260509162911 59 246 6.0 14.0 0.00 0.00 0.00 70 1003.4
20260509155817 60 238 6.0 11.0 0.00 0.00 0.00 70 1003.3
20260509154335 59 140 4.0 14.0 0.00 0.00 0.00 72 1003.3
20260509152753 59 126 4.0 14.0 0.00 0.00 0.00 74 1003.5
20260509151310 57 233 4.0 14.0 0.00 0.00 0.00 82 1003.7
20260509145845 55 236 3.0 7.0 0.00 0.00 0.00 86 1003.9
20260509144354 55 184 2.0 6.0 0.00 0.00 0.00 87 1004.1
20260509142844 54 200 3.0 6.0 0.00 0.00 0.00 89 1004.1
20260509141329 53 163 2.0 8.0 0.00 0.00 0.00 89 1004.2
20260509135806 52 157 3.0 8.0 0.00 0.00 0.00 89 1004.3
20260509134304 52 205 5.0 10.0 0.00 0.00 0.00 89 1004.5
20260509132730 52 204 5.0 13.0 0.00 0.00 0.00 90 1004.4
20260509131153 52 267 3.0 7.0 0.00 0.00 0.00 90 1004.4
20260509122428 50 169 1.0 5.0 0.00 0.00 0.00 90 1004.8
20260509115237 48 181 2.0 5.0 0.00 0.00 0.00 90 1005.0
20260509113754 46 200 0.0 5.0 0.00 0.00 0.00 90 1005.0
20260509110540 41 124 0.0 0.0 0.00 0.00 0.00 89 1005.0
20260509105005 41 124 0.0 0.0 0.00 0.00 0.00 89 1004.9
20260509101903 41 124 0.0 0.0 0.00 0.00 0.00 88 1004.9
20260509100358 41 139 0.0 0.0 0.00 0.00 0.00 87 1004.9
20260509094925 41 139 0.0 0.0 0.00 0.00 0.00 87 1005.1
20260509093457 42 140 0.0 0.0 0.00 0.00 0.00 86 1005.1
20260509091957 43 140 0.0 0.0 0.00 0.00 0.00 85 1005.1
20260509090413 43 140 0.0 0.0 0.00 0.00 0.00 85 1005.3
20260509084837 44 140 0.0 0.0 0.00 0.00 0.00 86 1005.2